Regional Weather Roundup
Issued by NWS Charleston, SC

Current Version | Previous Version | Graphics & Text | Print | Product List | Glossary On
Versions: 1 2 3 4 5 6 7 8 9 10 11 12 13 14 15 16 17 18 19 20 21 22 23 24 25 26 27 28 29 30 31 32 33 34 35 36 37 38 39 40 41 42 43 44 45 46 47 48 49 50
000
ASUS42 KCHS 281925
RWRCHS

REGIONAL WEATHER ROUNDUP
NATIONAL WEATHER SERVICE CHARLESTON SC
200 PM EST SUN DEC 28 2014

NOTE: "FAIR" INDICATES FEW OR NO CLOUDS BELOW 12,000 FEET WITH NO
SIGNIFICANT WEATHER AND/OR OBSTRUCTIONS TO VISIBILITY.

NOT ALL STATIONS ARE QUALITY CONTROLLED BY THE NATIONAL
WEATHER SERVICE. USE DATA WITH CAUTION...ESPECIALLY
DEWPOINT OBSERVATIONS.

SCZ027-030-031-034>040-042>050-282000-
...SOUTHEAST SOUTH CAROLINA...

CITY           SKY/WX    TMP DP  RH WIND       PRES   REMARKS
N CHARLESTON   PTSUNNY   75  63  64 SW12      30.04F
WATERFRONT PRK   N/A     70 N/A N/A SW13        N/A
MOUNT PLEASANT NOT AVBL
PINOPOLIS        N/A     70  63  78 SW7       29.96
MONCKS CORNER  NOT AVBL
SUMMERVILLE    NOT AVBL
BEAUFORT MCAS  MOSUNNY   75  64  68 SW7       30.04F
BEAUFORT ARPT  NOT AVBL
HILTON HEAD IS SUNNY     72  66  83 S7        30.06F
WALTERBORO     NOT AVBL
ALLENDALE      NOT AVBL

...SOUTHERN MIDLANDS AND PEE DEE...

CITY           SKY/WX    TMP DP  RH WIND       PRES   REMARKS
GEORGETOWN     NOT AVBL
KINGSTREE      NOT AVBL
ORANGEBURG     CLOUDY    69  60  73 SW8       30.03F
BARNWELL       CLOUDY    72  63  73 W5        30.04
AIKEN          NOT AVBL
MANNING        NOT AVBL
COLUMBIA       CLOUDY    64  64 100 SW6       30.02S FOG
SUMTER         CLOUDY    66  63  88 SW7       30.01S
FLORENCE       CLOUDY    74  58  57 SW21      30.00F
MYRTLE BEACH   MOSUNNY   72  59  64 S12       30.04F
N MYRTLE BEACH MOSUNNY   67  57  70 S9        30.03F

$$

GAZ063-065-086>088-099>101-113>116-118-119-134>141-150-282000-
...SOUTHEAST GEORGIA...

CITY           SKY/WX    TMP DP  RH WIND       PRES   REMARKS
SAVANNAH ARPT  PTSUNNY   79  62  56 SW9       30.04F
HUNTER AAF     SUNNY     80  66  62 SW9       30.02F
FORT STEWART   MOSUNNY   78  64  60 W9        30.03F
STATESBORO     MOSUNNY   76  63  64 W12       30.04F
SYLVANIA       CLEAR     75  65  70 W7        30.04F
CLAXTON        MOCLDY    77  64  65 W6        30.04F

...CSRA...CENTRAL AND FAR SOUTHEAST GEORGIA...

CITY           SKY/WX    TMP DP  RH WIND       PRES   REMARKS
THOMSON        CLOUDY    64  64 100 SW7       30.08F
AUGUSTA-BUSH   CLOUDY    67  60  78 SW7       30.03F
AUGUSTA-DANIEL LGT RAIN  63  61  93 CALM      30.04F
SWAINSBORO     CLOUDY    77  66  69 W6        30.05F
VIDALIA        CLOUDY    75  64  69 SW10      30.05S
EASTMAN        CLOUDY    76  66  71 W8        30.07S
HAZLEHURST     CLOUDY    79  65  64 SW7       30.04F
ALMA           MOSUNNY   80  62  54 W12       30.04F
WAYCROSS       SUNNY     83  68  60 SW9       30.05S
JESUP          FAIR      81  68  65 W9G17     30.05F
BAXLEY         FAIR      79  64  61 W8        30.04F
BRUNSWICK      SUNNY     81  63  54 SW12G18   30.06S
SAINT SIMONS   SUNNY     77  63  61 SW8       30.06F

$$

SCZ027-028-034-036>038-045-046-048>050-GAZ119-141-282000-
...LAKE AND SUPPLEMENTAL COASTAL OBSERVATIONS...

STATION/POSITION TIME  TEMP    WIND        PRES    WAVE   SWELL
                       AIR SEA DIR/SP/G            HT/PER HT/PER/DIR
                 (UTC) (F)     (DEG/KT/KT) (MB)    (FT/S) (FT/S/D)
UPR LAKE MARION  NOT AVBL
WINYAH BAY       1900   74     200/  9     1016.0S
LAKE MURRAY      1900   60     240/  4/  5 1016.3S
ACE BASIN NERRS  1900   70     170/  1     1018.0S
FORT PULASKI     1900   69 57  170/  4/  6 1017.9F
SAPELO ISLAND    1900   74     230/ 13     1017.0F

$$

ANZ835-935-AMZ111-154-330-350-352-354-370-450-454-472-282000-
...C-MAN AND BUOY OBSERVATIONS...

STATION/POSITION TIME  TEMP    WIND        PRES    WAVE   SWELL
                       AIR SEA DIR/SP/G            HT/PER HT/PER/DIR
                 (UTC) (F)     (DEG/KT/KT) (MB)    (FT/S) (FT/S/D)
BUOY 41004       1900   73 74  220/ 12/ 14 1017.2F   3/14   2/14
BUOY 41008       1900   61 60  200/  8/ 10 1017.7F   3/15   3/ 80/15
FOLLY BEACH CMAN 1900   62     210/  6/  7 1018.0F
CAPERS NEARSHORE 1800   63     220/  6/  6   N/A
FRIPP NEARSHORE  NOT AVBL


STATION/POSITION TIME  TEMP    WIND        PRES    WAVE   SWELL
                       AIR SEA DIR/SP/G            HT/PER HT/PER/DIR
                 (UTC) (F)     (DEG/KT/KT) (MB)    (FT/S) (FT/S/D)
5E ST. MARYS GA  1900      62                N/A     3/15   2/ 90/15
FRYING PAN BUOY  1900   69 68  240/  8/ 10 1018.4F   3/15   3/ 90/15
BUOY 41025       1900   70                 1016.6F   5/14
CAPE LOOKOUT NC  1900   65     250/  7/  9 1016.9F
BUOY 41002       1850   74 75  220/ 17/ 21 1019.6F   5/15   3/100/15
BUOY 41010       1900   77 77  220/ 10/ 12 1019.5F   5/15   5/ 80/15
ST AUGUSTINE FL  1900   65     160/  5/  6 1019.2F


$$



USA.gov is the U.S. government's official web portal to all federal, state and local government web resources and services.